Location: Borgo
(42.3939°N, 9.2791°E)
Time: 21:53:31
(UTC+00:00)

USA 229 - Pass Details

Date: 24 January 2021
Orbit: 964 x 1248 km, 63.4° (Epoch: 03 March)

Event Time Altitude Azimuth Distance (km) Brightness Sun altitude
Rises 18:33:17 0° 324° (NW) 3,971 7.1 -23.3°
Reaches altitude 10° 18:35:55 10° 325° (NW) 3,047 6.4 -23.8°
Maximum altitude 18:43:18 85° 54° (NE) 1,208 3.8 -25.1°
Enters shadow 18:47:29 31° 142° (SE) 2,015 4.8 -25.9°
